TimeMDT,TemperatureF,Dew PointF,Humidity,Sea Level PressureIn,VisibilityMPH,Wind Direction,Wind SpeedMPH,Gust SpeedMPH,PrecipitationIn,Events,Conditions,WindDirDegrees,DateUTC
12:53 AM,42.1,30.9,65,30.04,10.0,Calm,Calm,-,N/A,,Clear,0,2013-03-29 06:53:00
1:53 AM,39.9,30.9,70,30.05,10.0,East,3.5,-,N/A,,Clear,100,2013-03-29 07:53:00
2:53 AM,39.0,30.9,73,30.04,10.0,Calm,Calm,-,N/A,,Clear,0,2013-03-29 08:53:00
3:53 AM,39.0,32.0,76,30.04,10.0,Calm,Calm,-,N/A,,Clear,0,2013-03-29 09:53:00
4:53 AM,36.0,30.0,79,30.05,10.0,Calm,Calm,-,N/A,,Clear,0,2013-03-29 10:53:00
5:53 AM,30.0,26.1,85,30.07,9.0,SW,3.5,-,N/A,,Clear,220,2013-03-29 11:53:00
6:53 AM,30.0,26.1,85,30.09,6.0,SSW,4.6,-,N/A,,Clear,200,2013-03-29 12:53:00
7:53 AM,37.9,32.0,79,30.09,7.0,SSW,3.5,-,N/A,,Clear,200,2013-03-29 13:53:00
8:53 AM,44.1,35.1,71,30.09,8.0,Calm,Calm,-,N/A,,Clear,0,2013-03-29 14:53:00
9:53 AM,50.0,37.0,61,30.06,9.0,Calm,Calm,-,N/A,,Clear,0,2013-03-29 15:53:00
10:53 AM,57.9,37.9,47,30.05,10.0,SW,3.5,-,N/A,,Clear,230,2013-03-29 16:53:00
11:53 AM,66.0,41.0,40,30.02,10.0,Variable,4.6,-,N/A,,Clear,0,2013-03-29 17:53:00
12:53 PM,70.0,39.0,32,29.98,10.0,Variable,3.5,-,N/A,,Clear,0,2013-03-29 18:53:00
1:53 PM,72.0,35.1,26,29.95,10.0,SSE,10.4,-,N/A,,Clear,160,2013-03-29 19:53:00
2:53 PM,72.0,30.9,22,29.92,10.0,Calm,Calm,-,N/A,,Scattered Clouds,0,2013-03-29 20:53:00
3:53 PM,73.9,30.0,20,29.89,10.0,NNW,3.5,-,N/A,,Partly Cloudy,340,2013-03-29 21:53:00
4:53 PM,75.0,25.0,16,29.88,10.0,Variable,3.5,-,N/A,,Clear,0,2013-03-29 22:53:00
5:53 PM,72.0,21.9,15,29.91,10.0,WNW,9.2,-,N/A,,Clear,300,2013-03-29 23:53:00
6:53 PM,66.9,24.1,20,29.92,10.0,West,4.6,-,N/A,,Clear,280,2013-03-30 00:53:00
7:53 PM,57.9,26.1,30,29.93,10.0,NNE,5.8,-,N/A,,Clear,20,2013-03-30 01:53:00
8:53 PM,60.1,41.0,49,29.95,10.0,SE,15.0,-,N/A,,Mostly Cloudy,140,2013-03-30 02:53:00
9:53 PM,60.1,46.9,62,29.97,10.0,South,18.4,21.9,N/A,,Overcast,170,2013-03-30 03:53:00
10:53 PM,59.0,48.0,67,29.96,10.0,ESE,10.4,-,N/A,,Mostly Cloudy,120,2013-03-30 04:53:00
11:53 PM,54.0,46.0,75,29.95,10.0,South,6.9,-,N/A,,Clear,180,2013-03-30 05:53:00